Tracking 22879 objects as of 21-Apr-2021
HD Live streaming from Space Station
objects crossing your sky now

STARLINK-2368

Track STARLINK-2368 now!
10-day predictions
STARLINK-2368 is classified as:


NORAD ID: 47908
Int'l Code: 2021-021BA
Perigee: 356.1 km
Apogee: 357.6 km
Inclination: 53.1 °
Period: 91.5 minutes
Semi major axis: 6727 km
RCS: Unknown
Launch date: March 14, 2021
Source: United States (US)
Launch site: AIR FORCE EASTERN TEST RANGE (AFETR)
aabbcc
Your satellite tracking list
Your tracking list is empty




NASA's NSSDC Master Catalog

Two Line Element Set (TLE):
1 47908U 21021BA  21110.58335648 -.00026720  00000-0 -18628-3 0  9998
2 47908  53.0510  33.1748 0001126  76.4601 168.9392 15.73231324  1778
Source of the keplerian elements: AFSPC